DENIK EDRY-EDFM

Flight info

Callsign DENIK
Flight time 0h 3m
Altitude
Route
Aircraft C172

Departure

Time 2026-04-27 15:34
Airport Speyer Airfield (EDRY)

Arrival

Time 2026-04-27 15:37
Airport Mannheim-City Airport (EDFM)
Time Latitude Longitude Altitude Speed Heading
2026-04-27 15:34 49.39457 8.48535 1583 ft 120 kts 55°
2026-04-27 15:34 49.39947 8.49596 1505 ft 124 kts 46°
2026-04-27 15:34 49.40622 8.50368 1497 ft 119 kts 35°
2026-04-27 15:35 49.41353 8.50873 1492 ft 115 kts
2026-04-27 15:35 49.42146 8.51049 1479 ft 118 kts 17°
2026-04-27 15:35 49.42921 8.51457 1471 ft 112 kts 20°
2026-04-27 15:35 49.43628 8.51854 1399 ft 104 kts 20°
2026-04-27 15:36 49.44287 8.52212 1343 ft 96 kts 22°
2026-04-27 15:36 49.44915 8.52581 1197 ft 98 kts 19°
2026-04-27 15:36 49.45557 8.52912 1090 ft 94 kts 19°
2026-04-27 15:36 49.46151 8.53262 968 ft 88 kts 19°
2026-04-27 15:37 49.46708 8.53455 811 ft 80 kts 344°
2026-04-27 15:37 49.47135 8.52838 580 ft 88 kts 304°
2026-04-27 15:37 49.47252 8.51996 385 ft 73 kts 279°
2026-04-27 15:37 49.47283 8.51358 310 ft 45 kts 277°
2026-04-27 15:38 49.47282 8.51083 311 ft 0 kts 276°
2026-04-27 15:38 49.47285 8.51030 313 ft 11 kts 277°
2026-04-27 15:38 49.47262 8.50953 314 ft 8 kts 179°
2026-04-27 15:38 49.47234 8.51027 312 ft 15 kts 87°
2026-04-27 15:39 49.47225 8.51262 309 ft 22 kts 93°
2026-04-27 15:39 49.47215 8.51534 310 ft 25 kts 94°
2026-04-27 15:39 49.47206 8.51812 310 ft 27 kts 94°
2026-04-27 15:39 49.47199 8.52018 312 ft 13 kts 91°
2026-04-27 15:40 49.47200 8.52079 311 ft 0 kts 63°
2026-04-27 15:41 49.47206 8.52095 311 ft 10 kts 59°
2026-04-27 15:41 49.47246 8.52125 311 ft 6 kts 299°
2026-04-27 15:41 49.47262 8.51771 308 ft 61 kts 274°
2026-04-27 15:41 49.47284 8.51015 482 ft 70 kts 279°
2026-04-27 15:42 49.47239 8.50249 713 ft 81 kts 220°
2026-04-27 15:42 49.46674 8.49927 814 ft 89 kts 164°
2026-04-27 15:42 49.46318 8.50692 810 ft 94 kts 107°
2026-04-27 15:42 49.46249 8.51678 857 ft 93 kts 85°
2026-04-27 15:43 49.46328 8.52714 848 ft 97 kts 72°
2026-04-27 15:43 49.46775 8.53150 731 ft 71 kts
2026-04-27 15:43 49.47208 8.52737 515 ft 86 kts 294°
2026-04-27 15:43 49.47251 8.51894 329 ft 65 kts 278°
2026-04-27 15:44 49.47278 8.51282 318 ft 67 kts 270°
2026-04-27 15:44 49.47300 8.50524 543 ft 67 kts 278°
2026-04-27 15:44 49.47128 8.49883 728 ft 87 kts 202°
2026-04-27 15:44 49.46504 8.49797 804 ft 107 kts 136°
2026-04-27 15:45 49.46212 8.50873 781 ft 113 kts 88°
2026-04-27 15:45 49.46252 8.52073 862 ft 111 kts 83°
2026-04-27 15:45 49.46263 8.53260 898 ft 109 kts 86°
2026-04-27 15:45 49.46346 8.54265 902 ft 91 kts 48°
2026-04-27 15:46 49.46873 8.54493 769 ft 81 kts 332°
2026-04-27 15:46 49.47174 8.53724 563 ft 88 kts 285°
2026-04-27 15:46 49.47219 8.52825 441 ft 84 kts 268°
2026-04-27 15:46 49.47253 8.51971 315 ft 75 kts 269°
2026-04-27 15:47 49.47276 8.51292 323 ft 66 kts 278°
2026-04-27 15:47 49.47303 8.50516 543 ft 68 kts 278°
2026-04-27 15:47 49.47325 8.49768 781 ft 75 kts 274°
2026-04-27 15:47 49.47353 8.48904 953 ft 89 kts 277°
2026-04-27 15:48 49.47290 8.47907 1113 ft 107 kts 239°
2026-04-27 15:48 49.46619 8.47299 1247 ft 114 kts 197°
2026-04-27 15:48 49.45823 8.46906 1308 ft 121 kts 195°
2026-04-27 15:49 49.44173 8.46169 1393 ft 126 kts 200°
2026-04-27 15:49 49.43345 8.45674 1428 ft 124 kts 193°
2026-04-27 15:49 49.42554 8.45219 1494 ft 122 kts 204°
2026-04-27 15:49 49.41783 8.44603 1469 ft 127 kts 205°
2026-04-27 15:50 49.41007 8.43977 1494 ft 125 kts 202°